Tracking 17154 objects as of 31-July-2015
HD Live streaming from Space Station

AZUR (GRS A)

Track AZUR (GRS A) now!
10-day predictions
AZUR (GRS A) is classified as:


NORAD ID: 4221
Int'l Code: 1969-097A
Perigee: 365.0 km
Apogee: 1,339.5 km
Inclination: 102.7 °
Period: 101.8 minutes
Semi major axis: 7223 km
RCS: 0.3339 m2 (medium)
Launch date: November 8, 1969
Source: Germany (GER)
Your satellite tracking list
Your tracking list is empty





NASA's NSSDC Master Catalog

Two Line Element Set (TLE):
1 04221U 69097A   15212.50109644  .00012012  00000-0  58807-3 0  9997
2 04221 102.6809 125.0080 0674581 036.9455 327.6260 14.14181806151777

Source of the keplerian elements: AFSPC

N2YO: 305